When you browse on this site, cookies collect data to enhance your experience and personalize the content and advertising you see.
Visit our Privacy Policy to learn more. By continuing to use the site, you agree to this use of cookies and data.
  • In Austria
  • List of Countries
  • For 7 days
  • Water Temperature
  • Satellite Maps
  • Weather Map
  • News
  • Weather Widgets
  • user-avatar
    Login

    Hourly Weather Mansa

    Today, 18 January, Friday

    Time Temperature Precipitation Wind Pressure Humidity
    00:00 +18°C° 0 mm 1 mps 659 mmHg 94%
    01:00 +18°C° 0 mm 1 mps 659 mmHg 95%
    02:00 +18°C° 0 mm 1 mps 659 mmHg 96%
    03:00 +18°C° 0 mm 1 mps 659 mmHg 96%
    04:00 +18°C° 0 mm 1 mps 659 mmHg 97%
    05:00 +18°C° 0 mm 1 mps 659 mmHg 97%
    06:00 +19°C° 0 mm 1 mps 659 mmHg 95%
    07:00 +20°C° 0 mm 1 mps 660 mmHg 92%
    08:00 +20°C° 0 mm 2 mps 661 mmHg 89%
    09:00 +21°C° 0.3 mm 2 mps 661 mmHg 86%
    10:00 +24°C° 0.3 mm 3 mps 661 mmHg 82%
    11:00 +25°C° 0.3 mm 3 mps 661 mmHg 79%
    12:00 +25°C° 0.6 mm 3 mps 660 mmHg 77%
    13:00 +26°C° 0.6 mm 3 mps 659 mmHg 75%
    14:00 +26°C° 0.6 mm 3 mps 659 mmHg 73%
    15:00 +26°C° 0.2 mm 3 mps 658 mmHg 74%
    16:00 +26°C° 0.2 mm 3 mps 658 mmHg 76%
    17:00 +26°C° 0.2 mm 3 mps 658 mmHg 77%
    18:00 +24°C° 0.1 mm 2 mps 658 mmHg 83%
    19:00 +22°C° 0.1 mm 1 mps 658 mmHg 89%
    20:00 +21°C° 0.1 mm 1 mps 658 mmHg 96%
    21:00 +21°C° 0.1 mm 1 mps 658 mmHg 96%
    22:00 +20°C° 0.1 mm 1 mps 658 mmHg 96%
    23:00 +20°C° 0.1 mm 1 mps 659 mmHg 96%

    Tomorrow, 19 January, Saturday

    Time Temperature Precipitation Wind Pressure Humidity
    00:00 +20°C° 0 mm 1 mps 659 mmHg 96%
    01:00 +20°C° 0 mm 1 mps 658 mmHg 96%
    02:00 +20°C° 0 mm 1 mps 658 mmHg 96%
    03:00 +19°C° 0 mm 1 mps 658 mmHg 97%
    04:00 +19°C° 0 mm 1 mps 658 mmHg 97%
    05:00 +19°C° 0 mm 1 mps 658 mmHg 97%
    06:00 +20°C° 0 mm 1 mps 659 mmHg 94%
    07:00 +20°C° 0 mm 2 mps 659 mmHg 91%
    08:00 +21°C° 0 mm 2 mps 660 mmHg 88%
    09:00 +22°C° 0.1 mm 3 mps 660 mmHg 82%
    10:00 +24°C° 0.1 mm 3 mps 660 mmHg 76%
    11:00 +26°C° 0.1 mm 4 mps 660 mmHg 71%
    12:00 +26°C° 0.4 mm 4 mps 660 mmHg 72%
    13:00 +26°C° 0.4 mm 4 mps 659 mmHg 73%
    14:00 +26°C° 0.4 mm 4 mps 659 mmHg 74%
    15:00 +26°C° 0.4 mm 3 mps 659 mmHg 76%
    16:00 +25°C° 0.4 mm 3 mps 659 mmHg 78%
    17:00 +25°C° 0.4 mm 2 mps 658 mmHg 81%
    18:00 +24°C° 0.8 mm 2 mps 659 mmHg 86%
    19:00 +21°C° 0.8 mm 2 mps 659 mmHg 91%
    20:00 +20°C° 0.8 mm 2 mps 659 mmHg 96%
    21:00 +20°C° 0.2 mm 2 mps 659 mmHg 96%
    22:00 +21°C° 0.2 mm 1 mps 660 mmHg 96%
    23:00 +20°C° 0.2 mm 1 mps 660 mmHg 97%

    Day after tomorrow, 20 January, Sunday

    Time Temperature Precipitation Wind Pressure Humidity
    00:00 +19°C° 0.3 mm 2 mps 660 mmHg 97%
    01:00 +19°C° 0.3 mm 2 mps 659 mmHg 97%
    02:00 +19°C° 0.3 mm 2 mps 659 mmHg 98%
    03:00 +19°C° 1.7 mm 2 mps 659 mmHg 98%
    04:00 +19°C° 1.7 mm 2 mps 659 mmHg 98%
    05:00 +19°C° 1.7 mm 2 mps 659 mmHg 98%
    06:00 +19°C° 2.2 mm 2 mps 659 mmHg 98%
    07:00 +19°C° 2.2 mm 2 mps 660 mmHg 98%
    08:00 +19°C° 2.2 mm 2 mps 660 mmHg 98%
    09:00 +19°C° 1.7 mm 2 mps 661 mmHg 97%
    10:00 +19°C° 1.7 mm 2 mps 661 mmHg 97%
    11:00 +19°C° 1.7 mm 2 mps 661 mmHg 97%
    12:00 +19°C° 0.6 mm 2 mps 660 mmHg 96%
    13:00 +19°C° 0.6 mm 2 mps 660 mmHg 96%
    14:00 +19°C° 0.6 mm 2 mps 659 mmHg 96%
    15:00 +19°C° 0.1 mm 2 mps 659 mmHg 92%
    16:00 +20°C° 0.1 mm 3 mps 659 mmHg 89%
    17:00 +21°C° 0.1 mm 3 mps 659 mmHg 85%
    18:00 +20°C° 0 mm 2 mps 659 mmHg 89%
    19:00 +19°C° 0 mm 2 mps 659 mmHg 93%
    20:00 +19°C° 0 mm 1 mps 659 mmHg 97%
    21:00 +19°C° 0 mm 1 mps 660 mmHg 97%
    22:00 +19°C° 0 mm 1 mps 660 mmHg 97%
    23:00 +19°C° 0 mm 1 mps 661 mmHg 97%

    21 January, Monday

    Time Temperature Precipitation Wind Pressure Humidity
    00:00 +18°C° 0.2 mm 2 mps 660 mmHg 97%
    01:00 +18°C° 0.2 mm 2 mps 660 mmHg 97%
    02:00 +18°C° 0.2 mm 2 mps 659 mmHg 97%
    03:00 +17°C° 0 mm 2 mps 659 mmHg 98%
    04:00 +17°C° 0 mm 2 mps 659 mmHg 98%
    05:00 +18°C° 0 mm 1 mps 659 mmHg 98%
    06:00 +18°C° 0 mm 2 mps 660 mmHg 96%
    07:00 +18°C° 0 mm 2 mps 660 mmHg 93%
    08:00 +19°C° 0 mm 2 mps 661 mmHg 91%
    09:00 +21°C° 0.3 mm 2 mps 661 mmHg 87%
    10:00 +23°C° 0.3 mm 2 mps 661 mmHg 84%
    11:00 +25°C° 0.3 mm 2 mps 662 mmHg 80%
    12:00 +24°C° 1.2 mm 2 mps 661 mmHg 84%
    13:00 +24°C° 1.2 mm 1 mps 660 mmHg 87%
    14:00 +24°C° 1.2 mm 1 mps 659 mmHg 90%
    15:00 +23°C° 0.9 mm 1 mps 658 mmHg 91%
    16:00 +23°C° 0.9 mm 1 mps 658 mmHg 91%
    17:00 +23°C° 0.9 mm 1 mps 658 mmHg 92%
    18:00 +22°C° 0.3 mm 1 mps 658 mmHg 93%
    19:00 +21°C° 0.3 mm 1 mps 658 mmHg 95%
    20:00 +20°C° 0.3 mm 1 mps 659 mmHg 96%
    21:00 +20°C° 0.1 mm 1 mps 659 mmHg 96%
    22:00 +20°C° 0.1 mm 1 mps 659 mmHg 96%
    23:00 +19°C° 0.1 mm 1 mps 660 mmHg 96%

    22 January, Tuesday

    Time Temperature Precipitation Wind Pressure Humidity
    00:00 +19°C° 1 mm 1 mps 659 mmHg 97%
    01:00 +20°C° 1 mm 1 mps 659 mmHg 97%
    02:00 +20°C° 1 mm 1 mps 658 mmHg 98%
    03:00 +20°C° 2 mm 1 mps 658 mmHg 98%
    04:00 +19°C° 2 mm 1 mps 658 mmHg 98%
    05:00 +19°C° 2 mm 1 mps 659 mmHg 98%
    06:00 +19°C° 0.9 mm 1 mps 659 mmHg 98%
    07:00 +20°C° 0.9 mm 1 mps 659 mmHg 98%
    08:00 +20°C° 0.9 mm 1 mps 660 mmHg 97%
    09:00 +19°C° 0.5 mm 2 mps 660 mmHg 96%
    10:00 +19°C° 0.5 mm 2 mps 660 mmHg 95%
    11:00 +20°C° 0.5 mm 2 mps 660 mmHg 94%
    12:00 +22°C° 0.1 mm 3 mps 659 mmHg 87%
    13:00 +24°C° 0.1 mm 3 mps 659 mmHg 80%
    14:00 +26°C° 0.1 mm 3 mps 659 mmHg 72%
    15:00 +26°C° 0.6 mm 3 mps 658 mmHg 77%
    16:00 +25°C° 0.6 mm 3 mps 658 mmHg 81%
    17:00 +25°C° 0.6 mm 2 mps 657 mmHg 86%
    18:00 +23°C° 0.5 mm 2 mps 658 mmHg 89%
    19:00 +21°C° 0.5 mm 2 mps 658 mmHg 92%
    20:00 +21°C° 0.5 mm 1 mps 658 mmHg 95%
    21:00 +20°C° 0.1 mm 1 mps 658 mmHg 95%
    22:00 +20°C° 0.1 mm 1 mps 659 mmHg 95%
    23:00 +20°C° 0.1 mm 1 mps 659 mmHg 95%

    23 January, Wednesday

    Time Temperature Precipitation Wind Pressure Humidity
    00:00 +20°C° 0.3 mm 1 mps 659 mmHg 96%
    01:00 +20°C° 0.3 mm 1 mps 658 mmHg 96%
    02:00 +19°C° 0.3 mm 2 mps 658 mmHg 96%
    03:00 +19°C° 0.8 mm 2 mps 658 mmHg 97%
    04:00 +19°C° 0.8 mm 2 mps 658 mmHg 97%
    05:00 +19°C° 0.8 mm 2 mps 659 mmHg 97%
    06:00 +19°C° 0.4 mm 2 mps 659 mmHg 97%
    07:00 +19°C° 0.4 mm 2 mps 659 mmHg 97%
    08:00 +20°C° 0.4 mm 1 mps 660 mmHg 97%
    09:00 +21°C° 0 mm 2 mps 660 mmHg 90%
    10:00 +23°C° 0 mm 2 mps 660 mmHg 83%
    11:00 +25°C° 0 mm 3 mps 660 mmHg 76%
    12:00 +26°C° 0.1 mm 3 mps 659 mmHg 74%
    13:00 +26°C° 0.1 mm 3 mps 658 mmHg 71%
    14:00 +27°C° 0.1 mm 3 mps 658 mmHg 69%
    15:00 +27°C° 0.4 mm 3 mps 657 mmHg 73%
    16:00 +26°C° 0.4 mm 3 mps 657 mmHg 77%
    17:00 +26°C° 0.4 mm 2 mps 657 mmHg 81%
    18:00 +24°C° 0.4 mm 2 mps 657 mmHg 85%
    19:00 +22°C° 0.4 mm 1 mps 657 mmHg 89%
    20:00 +21°C° 0.4 mm 1 mps 658 mmHg 93%
    21:00 +21°C° 0.1 mm 1 mps 658 mmHg 93%
    22:00 +20°C° 0.1 mm 1 mps 658 mmHg 94%
    23:00 +20°C° 0.1 mm 1 mps 658 mmHg 94%
    Show more